TimeEDT,TemperatureF,Dew PointF,Humidity,Sea Level PressureIn,VisibilityMPH,Wind Direction,Wind SpeedMPH,Gust SpeedMPH,PrecipitationIn,Events,Conditions,WindDirDegrees,DateUTC
12:53 AM,53.1,48.9,86,29.96,10.0,Calm,Calm,-,N/A,,Scattered Clouds,0,2013-07-25 04:53:00
1:08 AM,55.4,50.0,82,29.97,10.0,NNW,3.5,-,N/A,,Mostly Cloudy,330,2013-07-25 05:08:00
1:53 AM,55.0,51.1,86,29.99,10.0,Calm,Calm,-,N/A,,Overcast,0,2013-07-25 05:53:00
2:14 AM,53.6,50.0,88,29.98,10.0,North,3.5,-,N/A,,Scattered Clouds,10,2013-07-25 06:14:00
2:53 AM,51.1,48.9,92,30.00,10.0,North,4.6,-,N/A,,Clear,360,2013-07-25 06:53:00
3:53 AM,50.0,46.9,89,30.02,10.0,Calm,Calm,-,N/A,,Clear,0,2013-07-25 07:53:00
4:53 AM,48.9,46.9,93,30.04,10.0,Calm,Calm,-,N/A,,Clear,0,2013-07-25 08:53:00
5:53 AM,48.9,46.9,93,30.05,10.0,North,4.6,-,N/A,,Clear,360,2013-07-25 09:53:00
6:53 AM,53.1,48.9,86,30.08,10.0,NNE,3.5,-,N/A,,Clear,30,2013-07-25 10:53:00
7:53 AM,55.9,46.9,72,30.10,10.0,NNE,8.1,-,N/A,,Clear,20,2013-07-25 11:53:00
8:53 AM,60.1,46.9,62,30.10,10.0,North,10.4,18.4,N/A,,Clear,10,2013-07-25 12:53:00
9:53 AM,63.0,48.0,58,30.11,10.0,NNW,6.9,-,N/A,,Clear,340,2013-07-25 13:53:00
10:53 AM,63.0,48.0,58,30.13,10.0,Variable,4.6,-,N/A,,Clear,0,2013-07-25 14:53:00
11:53 AM,66.0,50.0,56,30.12,10.0,North,9.2,-,N/A,,Clear,10,2013-07-25 15:53:00
12:53 PM,66.9,48.9,52,30.13,10.0,North,3.5,-,N/A,,Clear,350,2013-07-25 16:53:00
1:53 PM,69.1,48.9,49,30.12,10.0,Calm,Calm,-,N/A,,Clear,0,2013-07-25 17:53:00
2:53 PM,70.0,50.0,49,30.12,10.0,Calm,Calm,-,N/A,,Clear,0,2013-07-25 18:53:00
3:53 PM,70.0,48.9,47,30.13,10.0,Calm,Calm,-,N/A,,Clear,0,2013-07-25 19:53:00
4:53 PM,71.1,48.9,45,30.12,10.0,Calm,Calm,-,N/A,,Clear,0,2013-07-25 20:53:00
5:53 PM,72.0,50.0,46,30.12,10.0,North,3.5,-,N/A,,Clear,360,2013-07-25 21:53:00
6:53 PM,69.1,55.0,61,30.13,10.0,Calm,Calm,-,N/A,,Clear,0,2013-07-25 22:53:00
7:53 PM,64.0,57.0,78,30.14,10.0,Calm,Calm,-,N/A,,Clear,0,2013-07-25 23:53:00
8:53 PM,60.1,57.0,90,30.15,10.0,Calm,Calm,-,N/A,,Clear,0,2013-07-26 00:53:00
9:53 PM,59.0,55.9,90,30.15,10.0,Calm,Calm,-,N/A,,Clear,0,2013-07-26 01:53:00
10:53 PM,59.0,57.0,93,30.16,10.0,Calm,Calm,-,N/A,,Mostly Cloudy,0,2013-07-26 02:53:00
11:53 PM,60.1,57.0,90,30.15,10.0,Calm,Calm,-,N/A,,Overcast,0,2013-07-26 03:53:00